Location: Unspecified
(0.0000°N, 0.0000°E)
Time: 05:09:59
(UTC+00:00)

Tianhe-1 - Pass Details

Date: 10 May 2021
Orbit: 360 x 384 km, 41.5° (Epoch: 18 May)

Event Time Altitude Azimuth Distance (km) Brightness Sun altitude
Rises 18:30:00 0° 217° (SW) 2,209 5.2 -8.0°
Reaches altitude 10° 18:32:05 10° 210° (SSW) 1,364 4.0 -8.5°
Maximum altitude 18:35:03 45° 136° (SE) 519 1.3 -9.2°
Drops below altitude 10° 18:38:02 10° 62° (ENE) 1,372 3.5 -9.9°
Enters shadow 18:38:52 - 58° (ENE) 1,704 4.0 -10.1°
